This is the latest recevied weather packets stored in our database for station/object DAX207-13. If no packets are shown the sender has not sent any weather packets the latest 1 day(s).
| Time | Temp. | Humidity | Pressure | Rain* | Wind** | Luminosity | Snow |
|---|---|---|---|---|---|---|---|
| 1778140224 | 7.78° C | 92% | 1015.2 hPa | 0 mm | - | 111 W/m² | - |
| 1778139624 | 7.78° C | 93% | 1015 hPa | 0 mm | - | 94 W/m² | - |
| 1778139024 | 7.78° C | 94% | 1014.9 hPa | 0 mm | - | 62 W/m² | - |
| 1778138424 | 7.78° C | 94% | 1014.9 hPa | 0 mm | - | 53 W/m² | - |
| 1778137824 | 7.22° C | 94% | 1014.7 hPa | 0 mm | - | 65 W/m² | - |
| 1778137225 | 7.22° C | 94% | 1014.8 hPa | 0 mm | - | 64 W/m² | - |
| 1778136624 | 7.22° C | 95% | 1014.5 hPa | 0 mm | - | 106 W/m² | - |
| 1778136024 | 7.22° C | 95% | 1014.5 hPa | 0 mm | - | 75 W/m² | - |
| 1778135424 | 7.22° C | 95% | 1014.3 hPa | 0 mm | - | 58 W/m² | - |
| 1778134824 | 7.22° C | 95% | 1014.2 hPa | 0 mm | - | 73 W/m² | - |
| 1778134224 | 7.22° C | 95% | 1014.2 hPa | 0 mm | - | 57 W/m² | - |
| 1778133624 | 7.22° C | 96% | 1014 hPa | 0 mm | - | 63 W/m² | - |
| 1778133024 | 7.22° C | 96% | 1014 hPa | 0 mm | - | 57 W/m² | - |
| 1778132424 | 7.22° C | 97% | 1013.8 hPa | 0 mm | - | 39 W/m² | - |
| 1778131824 | 7.22° C | 97% | 1013.6 hPa | 0 mm | - | 33 W/m² | - |
| 1778131224 | 7.22° C | 97% | 1013.5 hPa | 0 mm | - | 39 W/m² | - |
| 1778130624 | 7.22° C | 98% | 1013.5 hPa | 0 mm | - | 45 W/m² | - |
| 1778130024 | 7.22° C | 98% | 1013.1 hPa | 0.25 mm | - | 33 W/m² | - |
| 1778129424 | 7.22° C | 98% | 1013.1 hPa | 0.25 mm | - | 34 W/m² | - |
| 1778128824 | 7.22° C | 98% | 1012.9 hPa | 0.25 mm | - | 31 W/m² | - |
| 1778128224 | 7.22° C | 98% | 1013 hPa | 0.25 mm | - | 18 W/m² | - |
| 1778127624 | 7.22° C | 98% | 1012.9 hPa | 0.25 mm | - | 10 W/m² | - |
| 1778127024 | 7.78° C | 98% | 1012.6 hPa | 0.25 mm | - | 6 W/m² | - |
| 1778126424 | 7.22° C | 98% | 1012.6 hPa | 0 mm | - | 4 W/m² | - |
| 1778125824 | 7.78° C | 98% | 1012.6 hPa | 0 mm | - | 1 W/m² | - |
* Rain latest hour (hover to see other rain measurements)
** Current wind speed in m/s (hover to see current wind gust speed)